STARLINK-3078, 49134

Orbit data source: Space-Track

STARLINK-3078, 49134 is a payload satellite owned by SpaceX/Seattle (US) in LEO that was launched on Tue, 14 Sep 2021 UTC via an FALCON 9 launch vehicle from the Air Force Western Test Range (AFWTR). Payload-class satellites include a variety of spacecraft equipped with specific instruments for various scientific and technological missions. These include communications satellites like Starlink; space stations such as the ISS; scientific satellites like the Hubble; Earth observation satellites from companies like Planet Labs, Umbra, and HawkEye 360; GPS; miniature CubeSats for education and research; and military/defense satellites.

Loading next visibility...
Identifier
49134, 2021-082E
Orbit
LEO
Country
Flag of USUS
Related business
Manufacturer
SpaceX/Seattle
Mission
Operational Commercial Communications
Bus & Motor
STARLINK, Unknown motor
Mass
297 kg wet, ~275 kg dry
Launch date (UTC)
2021-09-14 (4 years ago)
Launch vehicle
FALCON 9
Launch site
Air Force Western Test Range (AFWTR)
Object type
Payload
Rocket body
Debris
Shape & HBR
Box + 1 Pan, 10.1 m
Radar Cross Section
13.562 m², Large (>1 m²)

Expand to show TLE details & history
Last TLE update: 9 hours ago

TLE from 9 hours ago
0 STARLINK-3078
1 49134U 21082E   26035.67196071  .00001509  00000-0  13423-3 0  9998
2 49134  70.0015  17.7080 0002499 271.6225  88.4648 14.98330986242230
Epoch: 2026-02-04T16:07Z
TLE epoch observation values (Epoch: 2026-02-04T16:07:37.405Z)
Latitude
Longitude
0.96696°
Altitude
574.431 km
Speed
7.574 km/s
True Right ascension
01h 10m 49s
True Declination
0° 00' 00"
Sunlit
Object was in daylight at epoch
Visualization orbit readout
Latitude
Unknown
Longitude
Unknown
Altitude
Unknown
Speed
Unknown
Apparent Right ascension
Unknown
Apparent Declination
Unknown
Sunlit
N/A
Visualization observer readout
Local Sidereal Time
03:04:56
Azimuth
Unknown
Elevation
Unknown
Doppler factor
Unknown
Orbital elements
Apogee altitude
571.737 km
Perigee altitude
568.265 km
Semi-major axis
6,948.138 km
Eccentricity
0.00025
Inclination
70.0015°
RAAN
17.708°
Arg. of periapsis
271.6225°
True anomaly
88.49343°
Mean anomaly
88.4648°
Eccentric anomaly
88.47911°
Mean motion
3.74749 °/min
Orbital period
96.06 mins
BSTAR
0.00013423
Loading maneuver chart data...
Computing Atmospheric mass density...
Loading historical data...
Loading historical data...
Loading historical data...
Loading historical data...
Loading historical data...
Loading historical data...
Loading historical data...

Documentation

Showing up to 5 results
|